Location: *
(57.8420°S, 159.8600°W)
Time: 05:22:33
(UTC+00:00)

Genesis I - Pass Details

Date: 18 May 2021
Orbit: 479 x 540 km, 64.5° (Epoch: 20 June)

Event Time Altitude Azimuth Distance (km) Brightness Sun altitude
Rises 05:46:31 0° 294° (WNW) 2,652 7.8 -25.9°
Reaches altitude 10° 05:48:44 10° 290° (WNW) 1,758 6.7 -26.2°
Enters shadow 05:51:40 44° 262° (W) 731 4.3 -26.5°
